Location: Lower Kingswood
(51.2667°N, 0.2167°W)
Time: 19:49:13
(UTC+00:00)

Cosmos 1417 Rocket - Pass Details

Date: 26 September 2023
Orbit: 951 x 998 km, 83.0° (Epoch: 08 December)

Event Time Altitude Azimuth Distance (km) Brightness Sun altitude
Rises 03:00:20 0° 350° (N) 3,696 7.9 -26.2°
Reaches altitude 10° 03:02:53 10° 352° (N) 2,737 7.1 -25.9°
Maximum altitude 03:09:10 81° 79° (E) 986 4.5 -25.1°
Enters shadow 03:15:17 10° 168° (SSE) 2,671 6.6 -24.3°
